Location: Arbon
(43.0005°N, 0.7472°E)
Time: 23:15:12
(UTC+00:00)

N. Korean satellite - Visible Passes

Search period start: 19 October 2020 00:00
Search period end: 29 October 2020 00:00
Orbit: 453 x 504 km, 97.2° (Epoch: 18 October)

Date Brightness Start Highest point End Pass type
(mag) Time Alt. Az. Time Alt. Az. Time Alt. Az.
20 Oct 7.0 05:23:15 10° NNE 05:26:40 64° E 05:30:03 10° S visible
20 Oct 9.9 17:33:07 10° SW 17:35:47 19° W 17:38:26 10° NW visible
21 Oct 8.8 04:57:29 10° NE 05:00:30 28° E 05:03:28 10° SSE visible
22 Oct 9.9 04:32:27 10° ENE 04:34:13 13° E 04:35:58 10° ESE visible
23 Oct 6.3 05:38:15 10° N 05:41:41 77° WNW 05:45:05 10° SSW visible
23 Oct 10.2 17:49:18 10° WSW 17:50:56 13° W 17:52:33 10° WNW visible
24 Oct 7.7 05:12:15 10° NNE 05:15:34 44° E 05:18:49 10° S visible
25 Oct 9.3 04:46:42 10° NE 04:49:20 20° E 04:51:56 10° SE visible
26 Oct 6.7 05:53:20 10° N 05:56:38 46° WNW 05:59:55 10° SSW visible
27 Oct 6.7 05:27:08 10° NNE 05:30:34 74° ESE 05:33:57 10° S visible
27 Oct 9.9 17:37:22 10° SW 17:39:44 17° W 17:42:05 10° NW visible
28 Oct 8.5 05:01:17 10° NNE 05:04:23 31° E 05:07:27 10° SSE visible
